Showing default

KINEIS-5D, 62082

Orbit data source: Space-Track

KINEIS-5D, 62082 is a French payload satellite in SSO that was launched on Mon, 25 Nov 2024 UTC via an ELECTRON launch vehicle from the Rocket Lab Launch Complex (RLLC). Payload-class satellites include a variety of spacecraft equipped with specific instruments for various scientific and technological missions. These include communications satellites like Starlink; space stations such as the ISS; scientific satellites like the Hubble; Earth observation satellites from companies like Planet Labs, Umbra, and HawkEye 360; GPS; miniature CubeSats for education and research; and military/defense satellites.

Loading next visibility...
Identifier
62082, 2024-219B
Orbit
SSO
Last TLE update
6 hours ago
Origin
Manufacturer
KINEIS
Mission
Operational Commercial Communications
Bus & Motor
CUBESAT 16U, Unknown motor
Mass
28 kg wet, 28 kg dry
Launch date (UTC)
2024-11-25 (8 months ago)
Launch vehicle
ELECTRON
Launch site
Rocket Lab Launch Complex (RLLC)
Object type
Payload
Rocket body
Debris
Shape & HBR
Box + 2 Pan + 1 Ant, 1.6 m
Radar Cross Section
0.229 m², Medium (>0.1 m² and < 1m²)

Expand to show TLE details & history

TLE from 6 hours ago
0 KINEIS-5D
1 62082U 24219B   25192.19938641  .00000436  00000-0  76645-4 0  9991
2 62082  97.9727 353.0575 0002291  44.9333 315.2060 14.72327399 33582
Epoch: 2025-07-11T04:47Z
TLE epoch observation values (Epoch: 2025-07-11T04:47:06.985Z)
Latitude
-0.00001°
Longitude
-8.07634°
Altitude
655.513 km
Speed
7.53 km/s
True Right ascension
23h 32m 13s
True Declination
0° 00' 00"
Sunlit
Object was in full shadow at epoch
Visualization orbit readout
Latitude
-16.65441°
Longitude
-5.42461°
Altitude
659.489 km
Speed
7.527 km/s
Apparent Right ascension
00h 11m 16s
Apparent Declination
-72° 56' 06"
Sunlit
Object is in full shadow
Visualization observer readout
Local Sidereal Time
23:32:01
Azimuth
176.884° S
Elevation
-23.056°
Doppler factor
1
Orbital elements
Apogee altitude
652.313 km
Perigee altitude
649.092 km
Semi-major axis
7,028.839 km
Eccentricity
0.00023
Inclination
97.9727°
RAAN
353.0575°
Arg. of periapsis
44.9333°
True anomaly
Unknown
Mean anomaly
315.206°
Eccentric anomaly
Unknown
Mean motion
3.68314 °/min
Orbital period
97.74 mins
BSTAR
0.000076645
Loading maneuver chart data...
Loading SW <> Apogee altitude chart data...
Loading historical data...
Loading historical data...
Loading historical data...
Loading historical data...
Loading historical data...
Loading historical data...
Loading historical data...

KINEIS-5D Visibility forecast

Observer location: undefined°, undefined°

Span
Click to sort rows by Start time (UTC) header in descending order
Start Az.
Max El. time (UTC)
Max El. Az.
Max El.
End time (UTC)
End Az.
7 mins2025-07-11 11:26:01.443Z206.114° SW2025-07-11 11:29:01.443Z259.98° W27.777°2025-07-11 11:33:01.443Z325.979° NNW
7 mins2025-07-11 23:19:01.443Z30.463° NE2025-07-11 23:22:01.443Z115.488° SE38.374°2025-07-11 23:26:01.443Z177.392° S
7 mins2025-07-12 10:17:01.443Z136.365° SSE2025-07-12 10:20:01.443Z70.968° E34.631°2025-07-12 10:24:01.443Z1.872° NNE
|